Home   Weather   Colombia   Past weeks
Flag for Mexico

Past Weather in Colombia, Nuevo León, Mexico — Yesterday and Last 2 Weeks

Now
99 °F

Scattered clouds.


Feels Like: 104 °F
Forecast: 100 / 78 °F
Wind: 6 mph from East

Location: Laredo International Airport

Current Time: Jul 22, 2019 at 4:06:43 pm

Latest Report: Jul 22, 2019 at 2:56 pm


Visibility: 10 mi

Pressure: 29.91 "Hg

Humidity: 35%

Dew Point: 67 °F

Location of ColombiaLocation

Past Weather in Colombia — Graph

°F

Colombia Temperature Yesterday

Maximum temperature yesterday: 104 °F (at 3:56 pm)
Minimum temperature yesterday: 78 °F (at 6:56 am)
Average temperature yesterday: 90 °F

High & Low Weather Summary for the Past Weeks

 TemperatureHumidityPressure
High106 °F (Jul 8, 4:56 pm)84% (Jul 8, 6:56 am)29.98 "Hg (Jul 8, 6:56 am)
Low77 °F (Jul 12, 5:56 am)18% (Jul 20, 2:56 pm)29.73 "Hg (Jul 12, 5:56 pm)
Average91 °F53%29.87 "Hg
* Reported Jul 7 2:56 pm — Jul 22 2:56 pm, Colombia. Weather by CustomWeather, © 2019

Note: Actual official high and low records may vary slightly from our data, if they occured in-between our weather recording intervals... More about our weather records

Advertising

Colombia Weather History for the Previous 24 Hours

Scroll right to see more
 ConditionsComfort  
Time TempWeatherWind HumidityBarometerVisibility
2:56 pm
Mon, Jul 22
99 °FScattered clouds.6 mph35%29.91 "Hg10 mi
1:56 pm98 °FSunny.9 mph38%29.93 "Hg10 mi
12:56 pm96 °FPassing clouds.10 mph43%29.95 "Hg10 mi
11:56 am94 °FSunny.9 mph48%29.97 "Hg10 mi
10:56 am89 °FSunny.8 mph57%29.96 "Hg10 mi
9:56 am86 °FScattered clouds.9 mph67%29.96 "Hg10 mi
8:56 am83 °FPassing clouds.13 mph74%29.95 "Hg10 mi
7:56 am78 °FSunny.6 mph84%29.94 "Hg10 mi
6:56 am78 °FSunny.7 mph84%29.92 "Hg10 mi
5:56 am79 °FClear.9 mph82%29.90 "Hg10 mi
4:56 am80 °FClear.10 mph76%29.88 "Hg10 mi
3:56 am81 °FClear.8 mph72%29.89 "Hg10 mi
2:56 am82 °FClear.10 mph70%29.90 "Hg10 mi
1:56 am83 °FClear.12 mph70%29.89 "Hg10 mi
12:56 am84 °FClear.17 mph67%29.89 "Hg10 mi
11:56 pm
Sun, Jul 21
86 °FClear.21 mph61%29.88 "Hg10 mi
10:56 pm88 °FClear.23 mph55%29.86 "Hg10 mi
9:56 pm91 °FClear.23 mph45%29.83 "Hg10 mi
8:56 pm94 °FClear.22 mph43%29.80 "Hg10 mi
7:56 pm98 °FSunny.21 mph34%29.78 "Hg10 mi
6:56 pm102 °FPartly sunny.16 mph29%29.77 "Hg10 mi
5:56 pm102 °FPassing clouds.16 mph29%29.78 "Hg10 mi
4:56 pm104 °FPassing clouds.13 mph27%29.79 "Hg10 mi
Weather by CustomWeather, © 2019

See weather overview